TimeEST,TemperatureF,Dew PointF,Humidity,Sea Level PressureIn,VisibilityMPH,Wind Direction,Wind SpeedMPH,Gust SpeedMPH,PrecipitationIn,Events,Conditions,WindDirDegrees,DateUTC
12:53 AM,27.0,24.1,89,30.64,10.0,NE,3.5,-,N/A,,Clear,40,2012-11-18 05:53:00
1:53 AM,28.9,25.0,85,30.64,10.0,NE,3.5,-,N/A,,Clear,50,2012-11-18 06:53:00
2:53 AM,32.0,28.9,88,30.64,10.0,NE,3.5,-,N/A,,Clear,40,2012-11-18 07:53:00
3:53 AM,28.0,25.0,88,30.65,6.0,Calm,Calm,-,N/A,,Clear,0,2012-11-18 08:53:00
4:53 AM,33.1,28.9,85,30.66,6.0,NNE,6.9,-,N/A,,Clear,20,2012-11-18 09:53:00
5:53 AM,37.9,35.1,89,30.67,10.0,NNE,6.9,-,N/A,,Clear,20,2012-11-18 10:53:00
6:53 AM,37.9,35.1,89,30.67,9.0,NNE,8.1,-,N/A,,Clear,20,2012-11-18 11:53:00
7:53 AM,43.0,37.9,82,30.68,10.0,NNE,9.2,-,N/A,,Clear,30,2012-11-18 12:53:00
8:53 AM,45.0,37.9,76,30.68,10.0,NE,11.5,-,N/A,,Clear,40,2012-11-18 13:53:00
9:53 AM,46.0,36.0,68,30.69,10.0,ENE,9.2,-,N/A,,Partly Cloudy,60,2012-11-18 14:53:00
10:53 AM,48.0,36.0,63,30.67,10.0,NE,9.2,-,N/A,,Partly Cloudy,40,2012-11-18 15:53:00
11:53 AM,48.9,35.1,59,30.65,10.0,NE,10.4,-,N/A,,Partly Cloudy,50,2012-11-18 16:53:00
12:53 PM,51.1,35.1,54,30.63,10.0,NE,10.4,-,N/A,,Clear,40,2012-11-18 17:53:00
1:53 PM,50.0,34.0,54,30.62,10.0,NE,12.7,-,N/A,,Clear,50,2012-11-18 18:53:00
2:53 PM,50.0,34.0,54,30.62,10.0,NNE,10.4,-,N/A,,Clear,30,2012-11-18 19:53:00
3:53 PM,46.9,32.0,56,30.63,10.0,ENE,6.9,-,N/A,,Clear,60,2012-11-18 20:53:00
4:53 PM,43.0,32.0,65,30.63,10.0,NE,4.6,-,N/A,,Clear,50,2012-11-18 21:53:00
5:53 PM,43.0,33.1,68,30.62,10.0,NE,3.5,-,N/A,,Clear,50,2012-11-18 22:53:00
6:53 PM,44.1,32.0,63,30.62,10.0,East,5.8,-,N/A,,Clear,80,2012-11-18 23:53:00
7:53 PM,45.0,30.9,58,30.62,10.0,NE,5.8,-,N/A,,Clear,50,2012-11-19 00:53:00
8:53 PM,44.1,32.0,63,30.62,10.0,ENE,6.9,-,N/A,,Clear,60,2012-11-19 01:53:00
9:53 PM,43.0,34.0,71,30.61,10.0,NE,8.1,-,N/A,,Clear,50,2012-11-19 02:53:00
10:53 PM,43.0,35.1,74,30.60,10.0,NNE,9.2,-,N/A,,Mostly Cloudy,30,2012-11-19 03:53:00
11:48 PM,42.8,35.6,76,30.59,10.0,NE,9.2,-,N/A,,Scattered Clouds,40,2012-11-19 04:48:00
11:53 PM,43.0,35.1,74,30.59,10.0,NNE,9.2,-,N/A,,Scattered Clouds,30,2012-11-19 04:53:00